ISS (ZARYA) 1 25544U 98067A 10066.48187660 .00014123 00000-0 10239-3 0 7215 2 25544 051.6482 032.7439 0007757 023.0370 074.9567 15.73705588647450 PSSC (Decayed 2010-02-17) 1 33445U 08059B 10048.55178104 .13886539 12620-4 29203-3 0 5684 2 33445 051.6166 082.1835 0003309 305.0024 074.4202 16.46790444 70586